Regional Weather Roundup
Issued by NWS Green Bay, WI

Home | Current Version | Previous Version | Graphics & Text | Print | Product List | Glossary Off
Versions: 1 2 3 4 5 6 7 8 9 10 11 12 13 14 15 16 17 18 19 20 21 22 23 24 25 26 27 28 29 30 31 32 33 34 35 36 37 38 39 40 41 42 43 44 45 46 47 48 49 50

000
ASUS43 KGRB 040700
RWRGRB

NORTH-CENTRAL AND NORTHEAST WISCONSIN REGIONAL WEATHER ROUNDUP
NATIONAL WEATHER SERVICE GREEN BAY WI
100 AM CST SUN DEC 04 2016

WIZ005-009-010>012-018-019-040800-
NORTH CENTRAL WISCONSIN

CITY           SKY/WX    TMP DP  RH WIND       PRES   REMARKS
IRONWOOD       CLOUDY    27  23  85 S3        30.15F
MANITOWISH WTR NOT AVBL
ARBOR VITAE    NOT AVBL
EAGLE RIVER    NOT AVBL
LAND O LAKES   CLOUDY    27  20  76 S5        30.16S
RHINELANDER    CLOUDY    28  22  78 S5        30.15F
PHILLIPS       CLOUDY    25  21  87 SE5       30.14S
ANTIGO         NOT AVBL
TOMAHAWK       NOT AVBL
MERRILL        CLOUDY    27  22  82 S3        30.18F
$$

WIZ013-073-040800-
NORTHEAST WISCONSIN

CITY           SKY/WX    TMP DP  RH WIND       PRES   REMARKS
IRON MOUNTAIN  CLOUDY    29  24  82 SE3       30.16F
MARINETTE      CLOUDY    31  23  72 W3        30.23F
OCONTO         CLOUDY    31  23  71 SW3       30.22F
$$

WIZ017-030-035>037-045-040800-
CENTRAL WISCONSIN

CITY           SKY/WX    TMP DP  RH WIND       PRES   REMARKS
MEDFORD        NOT AVBL
WAUSAU         CLOUDY    27  21  78 SE8       30.17F
MOSINEE        NOT AVBL
MARSHFIELD     CLOUDY    28  22  78 S8        30.16F
WISC RAPIDS    CLOUDY    28  23  81 SE6       30.20F
STEVENS POINT  NOT AVBL
WAUPACA        NOT AVBL
SHAWANO        CLOUDY    32  24  74 CALM      30.22F
CLINTONVILLE   CLOUDY    30  23  74 S3        30.22F
WAUTOMA        CLOUDY    28  23  81 SE3       30.22F
$$

WIZ038-039-048-051-040800-
FOX VALLEY

CITY           SKY/WX    TMP DP  RH WIND       PRES   REMARKS
NWS GREEN BAY  CLOUDY    32  27  81 S3        30.23F
APPLETON       NOT AVBL
OSHKOSH        PTCLDY    29  23  78 S3        30.22F
FOND DU LAC    MOCLDY    31  23  72 SE5       30.23F
$$

WIZ022-050-052-040800-
EAST CENTRAL WISCONSIN

CITY           SKY/WX    TMP DP  RH WIND       PRES   REMARKS
EPHRAIM        NOT AVBL
WASHINGTON ISL NOT AVBL
STURGEON BAY   CLOUDY    31  24  75 S5        30.24S
MANITOWOC      NOT AVBL
SHEBOYGAN      CLOUDY    29  24  82 CALM      30.24F
$$

LMZ563-521-522-541>543-040800-
LAKESHORE

STATION/POSITION TIME  TEMP    WIND        PRES    VSBY  WAVE
                       AIR SEA DIR/SP/G                  HT/PER
                 (UTC) (F)     (DEG/KT/KT) (MB)    (MI)  (FT/S)
SHEBOYGAN LKSHOR 0600   32     240/  4/  5 1024.9F
KEWAUNEE LKSHORE 0630   32     230/  4/  6 1023.6R
ALGOMA MARINA    0621          280/  4/  6   N/A
NORTHPORT PIER   0640   32      CALM  /  3 1023.4F
SISTER BAY LKSHO 0553   32     180/  7/  9   N/A
CHAMBERS ISLAND  0640   32     210/  6/  9 1023.0S
MENOMINEE LKSHOR 0630   31     220/  8/  9 1022.8F
$$




USA.gov is the U.S. government's official web portal to all federal, state and local government web resources and services.